If you wish to contribute or participate in the discussions about articles you are invited to join SKYbrary as a registered user

 Actions

La Paz/El Alto International Airport

From SKYbrary Wiki

SLLP
Airport
ICAO: SLLP – IATA: LPB
Summary
Name La Paz/El Alto International Airport
Region South America and Caribbean
Territory Bolivia BO.gif
Location El Alto, La Paz
Serving La Paz
Elevation 4,061.46 m <br />13,325 ft <br />13,325 ft4,061.46 m <br />
Coordinates 16° 30' 48.00" S, 68° 11' 32.00" W
Runways
Designator Length Width Surface ROPS
10/28 4000 m13,123.36 ft <br /> 46 m150.919 ft <br /> CON yes/yes
10L/28R 2050 m6,725.722 ft <br /> 91 m298.556 ft <br /> GRE /


METAR
Observation SLLP 172100Z 12009KT 9999 FEW015 FEW017CB SCT070 BKN200 12/07 Q1031
Station La Paz / Alto
Date/Time 17 January 2021 21:00:00
Wind direction 120°
Wind speed 09 kts
Lowest cloud amount few clouds
Temperature 12°C
Dew point 7°C
Humidity 71%
QNH 1031 hPa
Weather condition n/a

RE
Tag(s) Hot and High Operations

International airport serving La Paz, Bolivia.

Climatology

Sub-tropical Highland climate (Köppen climate classification Cwb) - In the tropics, a Subtropical Highland climate tends to feature spring-like weather year-round. Average temperatures here remain relatively constant throughout the year but with a significant diurnal variation.

Maps

Terrain

Loading map...

Airport Layout

Loading map...


Accidents & Serious Incidents at or in vicinity of SLLP

None on SKYbrary